Flag for U.S.A. Weather past 2 weeks in Manassas, Virginia, U.S.A.

Now
68 °F

Sunny.


Feels Like: 68 °F
Forecast: 60 / 81 °F
Wind: 10 mph from Northeast

Location: Manassas Municipal

Current Time: Jul 25, 2014 at 12:56:49 PM

Latest Report: Jul 25, 2014 at 9:55 AM


Visibility: 10 mi

Pressure: 30.10 "Hg

Humidity: 64%

Dew point: 55 °F

Location of ManassasLocation

Historic Weather in Manassas — Graph

°F

Manassas temperature yesterday

Maximum temperature yesterday: 79 °F (at 12:45 PM)
Minimum temperature yesterday: 63 °F (at 11:55 PM)
Average temperature yesterday: 72 °F

Past Weeks' High & Low Weather Summary

 TemperatureHumidityPressure
High91 °F (Jul 23, 2:50 PM)100% (Jul 10, 11:55 PM)30.25 "Hg (Jul 10, 11:55 PM)
Low57 °F (Jul 25, 3:55 AM)40% (Jul 18, 4:45 PM)29.73 "Hg (Jul 15, 5:50 PM)
Average72 °F86%30.04 "Hg
* Reported Jul 10 10:50 AM — Jul 25 9:55 AM, Manassas, Weather by CustomWeather, © 2014

Note: Actual official high and low records may vary slightly from our data, if they occured in-between our weather recording intervals... More about our weather records

Advertising

Manassas weather history for previous 24 hours

 ConditionsComfort  
Time TempWeatherWind HumidityBarometerVisibility
9:55 AM
Jul 25
68 °FSunny.10 mph64%30.10 "Hg10 mi
8:55 AM68 °FSunny.10 mph64%30.09 "Hg10 mi
7:55 AM64 °FSunny.8 mph78%30.07 "Hg10 mi
6:55 AM61 °FClear.No wind94%30.06 "Hg10 mi
6:15 AM57 °FClear.3 mph94%30.05 "Hg10 mi
5:55 AM57 °FClear.No wind100%30.05 "Hg10 mi
5:35 AM57 °FClear.3 mph100%30.03 "Hg10 mi
4:55 AM57 °FClear.No wind100%30.02 "Hg2 mi
4:35 AM59 °FClear.No wind100%30.01 "Hg2 mi
4:15 AM59 °FClear.No wind94%30.01 "Hg2 mi
3:55 AM57 °FClear.No wind100%30.00 "Hg2 mi
3:35 AM61 °FClear.No wind100%30.00 "Hg9 mi
3:15 AM61 °FClear.No wind100%30.00 "Hg9 mi
2:55 AM61 °FClear.No wind100%30.00 "Hg10 mi
2:35 AM61 °FPassing clouds.No wind100%30.00 "Hg7 mi
2:15 AM61 °FPassing clouds.No wind100%30.00 "Hg10 mi
1:55 AM61 °FClear.No wind100%30.00 "Hg10 mi
1:35 AM61 °FClear.No wind100%29.99 "Hg10 mi
1:15 AM61 °FClear.No wind100%29.99 "Hg2 mi
12:55 AM63 °FClear.No wind100%29.99 "Hg2 mi
12:35 AM63 °FClear.No wind94%29.98 "Hg7 mi
12:15 AM63 °FClear.No wind100%29.97 "Hg9 mi
11:55 PM
Jul 24
63 °FClear.No wind100%29.97 "Hg10 mi
11:35 PM64 °FClear.No wind100%29.96 "Hg9 mi
11:15 PM64 °FClear.No wind94%29.96 "Hg10 mi
10:55 PM64 °FClear.No wind100%29.95 "Hg10 mi
10:35 PM66 °FClear.No wind100%29.96 "Hg10 mi
9:45 PM66 °FClear.No wind100%29.95 "Hg10 mi
7:55 PM75 °FSunny.6 mph69%29.91 "Hg10 mi
4:50 PM75 °FSunny.5 mph69%29.91 "Hg10 mi
3:45 PM75 °FOvercast.6 mph65%29.92 "Hg10 mi
2:55 PM77 °FOvercast.9 mph61%29.92 "Hg10 mi
1:45 PM75 °FOvercast.9 mph69%29.92 "Hg10 mi
12:45 PM79 °FPartly sunny.7 mph61%29.93 "Hg10 mi
Weather by CustomWeather, © 2014

See weather overviewHow to use our weather pages